When you browse on this site, cookies collect data to enhance your experience and personalize the content and advertising you see.
Visit our Privacy Policy to learn more. By continuing to use the site, you agree to this use of cookies and data.
  • In Austria
  • List of Countries
  • For 7 days
  • Water Temperature
  • Weather Map
  • News
  • Weather Widgets
  • user-avatar
    Login

    Hourly Weather Townsville

    Today, 9 December, Monday

    Time Temperature Precipitation Wind Pressure Humidity
    00:00 +25°C° 0 mm 3 mps 754 mmHg 84%
    01:00 +25°C° 0 mm 3 mps 754 mmHg 85%
    02:00 +24°C° 0 mm 3 mps 753 mmHg 85%
    03:00 +24°C° 0 mm 3 mps 753 mmHg 85%
    04:00 +24°C° 0 mm 3 mps 753 mmHg 87%
    05:00 +25°C° 0 mm 3 mps 754 mmHg 81%
    06:00 +26°C° 0 mm 4 mps 754 mmHg 76%
    07:00 +27°C° 0 mm 4 mps 754 mmHg 70%
    08:00 +29°C° 0 mm 4 mps 754 mmHg 62%
    09:00 +30°C° 0 mm 4 mps 754 mmHg 54%
    10:00 +33°C° 0 mm 5 mps 755 mmHg 46%
    11:00 +33°C° 0 mm 5 mps 754 mmHg 44%
    12:00 +33°C° 0 mm 6 mps 754 mmHg 43%
    13:00 +34°C° 0 mm 6 mps 754 mmHg 42%
    14:00 +33°C° 0 mm 6 mps 753 mmHg 43%
    15:00 +33°C° 0 mm 6 mps 753 mmHg 44%
    16:00 +33°C° 0 mm 5 mps 753 mmHg 45%
    17:00 +30°C° 0 mm 5 mps 753 mmHg 54%
    18:00 +28°C° 0 mm 4 mps 753 mmHg 62%
    19:00 +26°C° 0 mm 4 mps 754 mmHg 70%
    20:00 +26°C° 0 mm 4 mps 754 mmHg 75%
    21:00 +26°C° 0 mm 4 mps 754 mmHg 79%
    22:00 +25°C° 0 mm 4 mps 755 mmHg 83%
    23:00 +25°C° 0.1 mm 4 mps 754 mmHg 83%

    Tomorrow, 10 December, Tuesday

    Time Temperature Precipitation Wind Pressure Humidity
    00:00 +25°C° 0.1 mm 4 mps 754 mmHg 83%
    01:00 +25°C° 0.1 mm 4 mps 753 mmHg 83%
    02:00 +25°C° 0.1 mm 4 mps 753 mmHg 84%
    03:00 +23°C° 0.1 mm 4 mps 753 mmHg 85%
    04:00 +23°C° 0.1 mm 4 mps 752 mmHg 86%
    05:00 +25°C° 0 mm 4 mps 753 mmHg 82%
    06:00 +26°C° 0 mm 4 mps 753 mmHg 78%
    07:00 +27°C° 0 mm 4 mps 754 mmHg 73%
    08:00 +28°C° 0.1 mm 5 mps 753 mmHg 68%
    09:00 +30°C° 0.1 mm 5 mps 753 mmHg 62%
    10:00 +33°C° 0.1 mm 6 mps 753 mmHg 56%
    11:00 +34°C° 0.3 mm 6 mps 753 mmHg 55%
    12:00 +34°C° 0.3 mm 7 mps 752 mmHg 54%
    13:00 +35°C° 0.3 mm 7 mps 752 mmHg 52%
    14:00 +34°C° 0.4 mm 7 mps 751 mmHg 54%
    15:00 +34°C° 0.4 mm 7 mps 751 mmHg 55%
    16:00 +33°C° 0.4 mm 7 mps 750 mmHg 57%
    17:00 +32°C° 0.2 mm 6 mps 751 mmHg 63%
    18:00 +30°C° 0.2 mm 6 mps 751 mmHg 70%
    19:00 +28°C° 0.2 mm 5 mps 751 mmHg 76%
    20:00 +28°C° 0 mm 5 mps 752 mmHg 79%
    21:00 +27°C° 0 mm 5 mps 752 mmHg 83%
    22:00 +27°C° 0 mm 5 mps 753 mmHg 86%
    23:00 +27°C° 0.1 mm 4 mps 752 mmHg 86%

    Day after tomorrow, 11 December, Wednesday

    Time Temperature Precipitation Wind Pressure Humidity
    00:00 +27°C° 0.1 mm 4 mps 752 mmHg 87%
    01:00 +27°C° 0.1 mm 4 mps 751 mmHg 88%
    02:00 +26°C° 0.1 mm 4 mps 751 mmHg 89%
    03:00 +26°C° 0.1 mm 4 mps 751 mmHg 90%
    04:00 +25°C° 0.1 mm 4 mps 750 mmHg 91%
    05:00 +26°C° 0.2 mm 4 mps 751 mmHg 88%
    06:00 +26°C° 0.2 mm 4 mps 751 mmHg 85%
    07:00 +27°C° 0.2 mm 4 mps 752 mmHg 82%
    08:00 +29°C° 0.1 mm 4 mps 752 mmHg 75%
    09:00 +30°C° 0.1 mm 5 mps 751 mmHg 67%
    10:00 +32°C° 0.1 mm 5 mps 751 mmHg 60%
    11:00 +33°C° 0 mm 5 mps 751 mmHg 57%
    12:00 +34°C° 0 mm 6 mps 750 mmHg 54%
    13:00 +35°C° 0 mm 6 mps 750 mmHg 51%
    14:00 +35°C° 0 mm 6 mps 749 mmHg 52%
    15:00 +35°C° 0 mm 6 mps 749 mmHg 52%
    16:00 +34°C° 0 mm 6 mps 749 mmHg 53%
    17:00 +33°C° 0 mm 5 mps 749 mmHg 62%
    18:00 +30°C° 0 mm 5 mps 749 mmHg 71%
    19:00 +28°C° 0 mm 4 mps 750 mmHg 81%
    20:00 +27°C° 0 mm 5 mps 750 mmHg 83%
    21:00 +27°C° 0 mm 5 mps 751 mmHg 86%
    22:00 +26°C° 0 mm 5 mps 751 mmHg 89%
    23:00 +26°C° 0 mm 4 mps 751 mmHg 89%

    12 December, Thursday

    Time Temperature Precipitation Wind Pressure Humidity
    00:00 +25°C° 0 mm 4 mps 750 mmHg 90%
    01:00 +25°C° 0 mm 4 mps 750 mmHg 90%
    02:00 +25°C° 0 mm 3 mps 750 mmHg 91%
    03:00 +24°C° 0 mm 3 mps 750 mmHg 91%
    04:00 +24°C° 0 mm 3 mps 749 mmHg 91%
    05:00 +25°C° 0 mm 3 mps 750 mmHg 86%
    06:00 +26°C° 0 mm 3 mps 750 mmHg 80%
    07:00 +27°C° 0 mm 2 mps 751 mmHg 75%
    08:00 +29°C° 0 mm 3 mps 751 mmHg 64%
    09:00 +31°C° 0 mm 3 mps 751 mmHg 52%
    10:00 +34°C° 0 mm 4 mps 751 mmHg 40%
    11:00 +35°C° 0 mm 4 mps 750 mmHg 40%
    12:00 +35°C° 0 mm 5 mps 750 mmHg 39%
    13:00 +35°C° 0 mm 5 mps 749 mmHg 39%
    14:00 +35°C° 0 mm 5 mps 749 mmHg 42%
    15:00 +34°C° 0 mm 5 mps 749 mmHg 45%
    16:00 +33°C° 0 mm 5 mps 748 mmHg 48%
    17:00 +32°C° 0 mm 4 mps 749 mmHg 57%
    18:00 +29°C° 0 mm 4 mps 749 mmHg 65%
    19:00 +27°C° 0 mm 3 mps 750 mmHg 73%
    20:00 +27°C° 0 mm 3 mps 750 mmHg 76%
    21:00 +26°C° 0 mm 3 mps 750 mmHg 79%
    22:00 +26°C° 0 mm 3 mps 751 mmHg 82%
    23:00 +26°C° 0 mm 2 mps 751 mmHg 83%

    13 December, Friday

    Time Temperature Precipitation Wind Pressure Humidity
    00:00 +25°C° 0 mm 2 mps 750 mmHg 84%
    01:00 +25°C° 0 mm 2 mps 750 mmHg 84%
    02:00 +25°C° 0 mm 2 mps 750 mmHg 85%
    03:00 +24°C° 0 mm 1 mps 750 mmHg 85%
    04:00 +24°C° 0 mm 1 mps 750 mmHg 86%
    05:00 +25°C° 0 mm 1 mps 750 mmHg 80%
    06:00 +26°C° 0 mm 1 mps 750 mmHg 75%
    07:00 +27°C° 0 mm 1 mps 750 mmHg 69%
    08:00 +29°C° 0 mm 2 mps 750 mmHg 61%
    09:00 +31°C° 0 mm 2 mps 750 mmHg 53%
    10:00 +34°C° 0 mm 3 mps 750 mmHg 45%
    11:00 +34°C° 0 mm 3 mps 750 mmHg 44%
    12:00 +35°C° 0 mm 3 mps 749 mmHg 42%
    13:00 +35°C° 0 mm 3 mps 749 mmHg 40%
    14:00 +35°C° 0 mm 4 mps 748 mmHg 43%
    15:00 +34°C° 0 mm 4 mps 748 mmHg 45%
    16:00 +34°C° 0 mm 4 mps 747 mmHg 47%
    17:00 +32°C° 0 mm 4 mps 748 mmHg 55%
    18:00 +29°C° 0 mm 4 mps 748 mmHg 62%
    19:00 +27°C° 0 mm 4 mps 749 mmHg 69%
    20:00 +27°C° 0 mm 3 mps 749 mmHg 72%
    21:00 +27°C° 0 mm 3 mps 750 mmHg 74%
    22:00 +26°C° 0 mm 3 mps 750 mmHg 77%
    23:00 +26°C° 0 mm 3 mps 750 mmHg 78%

    14 December, Saturday

    Time Temperature Precipitation Wind Pressure Humidity
    00:00 +26°C° 0 mm 3 mps 750 mmHg 78%
    01:00 +26°C° 0 mm 2 mps 750 mmHg 79%
    02:00 +25°C° 0 mm 2 mps 750 mmHg 80%
    03:00 +25°C° 0 mm 2 mps 750 mmHg 82%
    04:00 +25°C° 0 mm 2 mps 750 mmHg 83%
    05:00 +26°C° 0 mm 2 mps 750 mmHg 79%
    06:00 +27°C° 0 mm 2 mps 751 mmHg 75%
    07:00 +27°C° 0 mm 1 mps 751 mmHg 72%
    08:00 +29°C° 0 mm 2 mps 751 mmHg 64%
    09:00 +31°C° 0 mm 2 mps 751 mmHg 56%
    10:00 +34°C° 0 mm 2 mps 751 mmHg 48%
    11:00 +34°C° 0 mm 3 mps 750 mmHg 46%
    12:00 +35°C° 0 mm 3 mps 749 mmHg 45%
    13:00 +36°C° 0 mm 3 mps 749 mmHg 43%
    14:00 +35°C° 0 mm 4 mps 748 mmHg 45%
    15:00 +34°C° 0 mm 4 mps 748 mmHg 48%
    16:00 +33°C° 0 mm 4 mps 747 mmHg 50%
    17:00 +32°C° 0 mm 4 mps 748 mmHg 58%
    18:00 +29°C° 0 mm 4 mps 748 mmHg 66%
    19:00 +28°C° 0 mm 3 mps 749 mmHg 74%
    20:00 +27°C° 0 mm 2 mps 750 mmHg 75%
    21:00 +27°C° 0 mm 1 mps 750 mmHg 76%
    22:00 +25°C° 0 mm 0 mps 751 mmHg 78%
    23:00 +26°C° 0 mm 1 mps 750 mmHg 78%
    Show more